Terminal Aerodrome Forecast
Issued by NWS Mt. Holly, NJ

Home | Current Version | Previous Version | Text Only | Print | Product List | Glossary On
Versions: 1 2 3 4 5 6 7 8 9 10 11 12 13 14 15 16 17 18 19 20 21 22 23 24 25 26 27 28 29 30 31 32 33 34 35 36 37 38 39 40 41 42 43 44 45 46 47 48 49 50
000
FTAK31 PANC 230523
TAFABE
TAF
PABE 230523Z 2306/2406 03017KT P6SM SKC
     FM231500 04021G30KT P6SM BKN200
     FM232100 04020KT 1SM -SN BLSN OVC015 WS020/09030KT=

USA.gov is the U.S. government's official web portal to all federal, state and local government web resources and services.